DW0935 Weather Reports


Display with metric or nautical units.
time (UTC)temp
F
wind
direction
speed
MPH
gust
MPH
rain 1hr
in
rain 24hr
in
rain mn
in
humidity
%
barometer
mb
20260505120027 54 212 14.0 24.0 0.00 0.00 0.00 89 1013.8
20260505114524 53 206 17.0 24.0 0.00 0.00 0.00 89 1014.0
20260505113023 53 248 18.0 28.0 0.00 0.00 0.00 89 1013.9
20260505111521 53 189 15.0 25.0 0.00 0.00 0.00 90 1013.9
20260505101527 51 218 12.0 17.0 0.00 0.00 0.00 92 1013.8
20260505100030 50 187 12.0 18.0 0.00 0.00 0.00 93 1013.7
20260505094509 50 222 15.0 23.0 0.00 0.00 0.00 93 1013.4
20260505093008 49 237 12.0 21.0 0.00 0.00 0.00 93 1013.4
20260505091506 49 226 13.0 20.0 0.00 0.00 0.00 93 1013.5
20260505090005 50 206 11.0 19.0 0.00 0.00 0.00 93 1013.4
20260505084506 50 202 13.0 20.0 0.00 0.00 0.00 93 1013.4
20260505083003 50 225 11.0 16.0 0.00 0.00 0.00 92 1013.5
20260505081628 50 202 10.0 17.0 0.00 0.00 0.00 92 1013.6
20260505074558 50 230 10.0 22.0 0.00 0.00 0.00 91 1013.5
20260505073103 51 235 14.0 23.0 0.00 0.00 0.00 91 1013.5
20260505071557 51 235 13.0 22.0 0.00 0.00 0.00 91 1013.5
20260505070058 51 227 14.0 24.0 0.00 0.00 0.00 91 1013.4
20260505064552 51 289 13.0 23.0 0.00 0.00 0.00 90 1013.4
20260505063051 51 215 12.0 22.0 0.00 0.00 0.00 90 1013.5
20260505061549 51 209 13.0 21.0 0.00 0.00 0.00 90 1013.5
20260505060047 51 229 14.0 24.0 0.00 0.00 0.00 90 1013.5
20260505054548 51 243 12.0 24.0 0.00 0.00 0.00 89 1013.4
20260505053044 50 243 13.0 22.0 0.00 0.00 0.00 90 1013.4
20260505051542 50 213 12.0 21.0 0.00 0.00 0.00 91 1013.4
20260505041529 50 226 13.0 21.0 0.00 0.00 0.00 89 1014.0
20260505040028 50 235 14.0 28.0 0.00 0.00 0.00 88 1014.0
20260505034526 51 258 14.0 27.0 0.00 0.00 0.00 87 1014.0
20260505033024 51 250 16.0 25.0 0.00 0.00 0.00 87 1014.1
20260505031531 51 225 14.0 25.0 0.00 0.00 0.00 87 1014.0
20260505030023 51 244 13.0 26.0 0.00 0.00 0.00 86 1014.0
20260505024522 51 228 15.0 26.0 0.00 0.00 0.00 85 1014.0
20260505023022 51 181 17.0 29.0 0.00 0.00 0.00 84 1014.0
20260505021519 51 256 14.0 26.0 0.00 0.00 0.00 83 1013.9
20260505020019 51 208 17.0 28.0 0.00 0.00 0.00 83 1013.8
20260505014517 51 230 17.0 27.0 0.00 0.00 0.00 82 1013.7
20260505013016 51 218 13.0 28.0 0.00 0.00 0.00 82 1013.5
20260505011525 50 220 14.0 26.0 0.00 0.00 0.00 82 1013.4
20260505010026 50 213 15.0 24.0 0.00 0.00 0.00 81 1013.1
20260505004515 50 243 17.0 25.0 0.00 0.00 0.00 81 1012.8
20260505003014 50 242 18.0 30.0 0.00 0.00 0.00 81 1012.6
20260505001514 51 210 18.0 30.0 0.00 0.00 0.00 82 1012.4
20260505000021 50 226 19.0 28.0 0.00 0.00 0.00 82 1012.1
20260504234512 51 260 17.0 31.0 0.00 0.00 0.00 81 1012.0
20260504233011 51 227 17.0 26.0 0.00 0.00 0.00 81 1012.0
20260504231510 51 225 18.0 31.0 0.00 0.00 0.00 81 1011.9
20260504230012 52 254 19.0 27.0 0.00 0.00 0.00 81 1011.8
20260504224511 52 223 19.0 28.0 0.00 0.00 0.00 81 1011.9
20260504223011 53 229 15.0 29.0 0.00 0.00 0.00 80 1011.7
20260504221520 53 233 20.0 33.0 0.00 0.00 0.00 78 1011.8
20260504220007 54 242 20.0 33.0 0.00 0.00 0.00 75 1012.0
20260504214507 54 220 18.0 30.0 0.00 0.00 0.00 76 1012.0
20260504213005 53 199 22.0 34.0 0.00 0.00 0.00 76 1012.1
20260504211506 53 279 17.0 37.0 0.00 0.00 0.00 77 1012.2
20260504210004 54 210 17.0 31.0 0.00 0.00 0.00 77 1012.3
20260504204502 54 238 18.0 31.0 0.00 0.00 0.00 76 1012.2
20260504203002 54 239 15.0 31.0 0.00 0.00 0.00 75 1012.3
20260504201501 54 202 26.0 38.0 0.00 0.00 0.00 73 1012.3
20260504200104 54 257 21.0 37.0 0.00 0.00 0.00 74 1012.3
20260504194601 55 242 20.0 35.0 0.00 0.00 0.00 73 1012.3
20260504193102 55 235 22.0 32.0 0.00 0.00 0.00 71 1012.3
20260504191602 55 229 23.0 41.0 0.00 0.00 0.00 73 1012.4
20260504190056 55 237 23.0 39.0 0.00 0.00 0.00 73 1012.4
20260504184555 55 234 18.0 37.0 0.00 0.00 0.00 73 1012.6
20260504183054 56 245 19.0 34.0 0.00 0.00 0.00 72 1012.5
20260504181554 56 267 21.0 35.0 0.00 0.00 0.00 70 1012.3
20260504180052 56 241 19.0 36.0 0.00 0.00 0.00 71 1012.4
20260504174552 56 247 18.0 36.0 0.00 0.00 0.00 73 1012.4
20260504173050 56 262 23.0 31.0 0.00 0.00 0.00 71 1012.5
20260504171554 56 247 22.0 34.0 0.00 0.00 0.00 72 1012.6